Weather History for PHOG - December, 2012

Change the Weather History Date:

Tuesday, December 11, 2012

  Actual Average Record
Temperature  
Mean Temperature 77 °F 74 °F  
Max Temperature 83 °F 82 °F 88 °F (1991)
Min Temperature 71 °F 66 °F 56 °F (2004)
Degree Days  
Heating Degree Days 0 0  
Month to date heating degree days 0 0  
Since 1 July heating degree days 0 0  
Cooling Degree Days 12 9  
Month to date cooling degree days 112 101  
Year to date cooling degree days 3755 3808  
Growing Degree Days 26 (Base 50)    
Moisture  
Dew Point 62 °F    
Average Humidity 60    
Maximum Humidity 73    
Minimum Humidity 47    
Precipitation  
Precipitation 0.01 in 0.12 in 3.06 in (2008)
Month to date precipitation 0.03 1.13  
Year to date precipitation 4.97 15.61  
Snow  
Snow 0.00 in - - ()
Month to date snowfall 0.0  
Since 1 July snowfall 0.0  
Snow Depth 0.00 in    
Sea Level Pressure  
Sea Level Pressure 30.06 in    
Wind  
Wind Speed 18 mph (ENE)    
Max Wind Speed 26 mph    
Max Gust Speed 37 mph    
Visibility 10 miles    
Events Rain    
T = Trace of Precipitation, MM = Missing Value Source: NWS Daily Summary

Daily Weather History Graph

Daily Weather History Graph

Search for Another Location

Airport or City:

Trip Planner

Search our weather history database for the weather conditions in past years. The results will help you decide how hot, cold, wet, or windy it might be!

Date:

Astronomy

Dec. 11, 2012 Rise Set
Actual Time 6:52 AM HST 5:45 PM HST
Civil Twilight 6:28 AM HST 6:10 PM HST
Nautical Twilight 6:01 AM HST 6:37 PM HST
Astronomical Twilight 5:33 AM HST 7:04 PM HST
Moon 5:06 AM HST (12/11) 4:30 PM HST (12/11)
Length of Visible Light 11h 41m
Length of Day
10h 53m
Waning Crescent, 3% of the Moon is Illuminated
Dec 11
Waning Crescent
Dec 12
New
Dec 19
First Quarter
Dec 28
Full
Jan 4
Last Quarter

Hourly Weather History & Observations

Time (HST) Temp. Heat Index Dew Point Humidity Pressure Visibility Wind Dir Wind Speed Gust Speed Precip Events Conditions
12:54 AM 72.0 °F - 61.0 °F 68% 30.04 in 10.0 mi NE 13.8 mph - N/A   Clear
1:54 AM 72.0 °F - 62.1 °F 71% 30.02 in 10.0 mi NE 21.9 mph 26.5 mph N/A   Clear
2:54 AM 72.0 °F - 62.1 °F 71% 30.02 in 10.0 mi NE 18.4 mph 27.6 mph N/A   Clear
3:54 AM 72.0 °F - 62.1 °F 71% 30.01 in 10.0 mi NE 19.6 mph 27.6 mph N/A   Clear
4:54 AM 72.0 °F - 62.1 °F 71% 30.01 in 10.0 mi ENE 15.0 mph 26.5 mph N/A   Clear
5:54 AM 72.0 °F - 57.9 °F 61% 30.03 in 10.0 mi NE 19.6 mph 29.9 mph N/A   Clear
6:54 AM 73.0 °F - 60.1 °F 64% 30.05 in 10.0 mi NE 19.6 mph - N/A   Partly Cloudy
7:54 AM 73.0 °F - 63.0 °F 71% 30.06 in 10.0 mi NE 20.7 mph 28.8 mph N/A   Partly Cloudy
8:54 AM 77.0 °F - 60.1 °F 56% 30.08 in 10.0 mi NE 18.4 mph 29.9 mph N/A   Partly Cloudy
9:54 AM 78.1 °F - 59.0 °F 52% 30.09 in 10.0 mi ENE 17.3 mph 32.2 mph N/A   Partly Cloudy
10:54 AM 79.0 °F - 59.0 °F 50% 30.08 in 10.0 mi ENE 16.1 mph 29.9 mph N/A   Partly Cloudy
11:54 AM 81.0 °F 81.7 °F 61.0 °F 50% 30.06 in 10.0 mi ENE 20.7 mph 29.9 mph N/A   Clear
12:54 PM 82.0 °F 83.0 °F 62.1 °F 51% 30.04 in 10.0 mi ENE 24.2 mph 34.5 mph 0.01 in   Partly Cloudy
1:54 PM 82.0 °F 82.4 °F 60.1 °F 47% 30.04 in 10.0 mi ENE 21.9 mph 32.2 mph N/A   Scattered Clouds
2:54 PM 80.1 °F 81.2 °F 62.1 °F 54% 30.03 in 10.0 mi East 23.0 mph 36.8 mph N/A   Scattered Clouds
3:54 PM 78.1 °F - 61.0 °F 56% 30.04 in 10.0 mi ENE 15.0 mph 23.0 mph N/A   Scattered Clouds
4:54 PM 75.0 °F - 63.0 °F 66% 30.05 in 10.0 mi ENE 18.4 mph 29.9 mph N/A   Scattered Clouds
5:54 PM 73.9 °F - 62.1 °F 66% 30.06 in 10.0 mi ENE 20.7 mph 28.8 mph N/A   Scattered Clouds
6:54 PM 73.0 °F - 63.0 °F 71% 30.08 in 10.0 mi ENE 19.6 mph 28.8 mph N/A   Clear
7:54 PM 73.0 °F - 64.0 °F 73% 30.10 in 10.0 mi NE 15.0 mph 23.0 mph N/A   Clear
8:54 PM 73.0 °F - 63.0 °F 71% 30.11 in 10.0 mi NE 13.8 mph - 0.00 in   Clear
9:54 PM 73.0 °F - 64.9 °F 76% 30.12 in 10.0 mi ENE 15.0 mph - N/A   Clear
10:54 PM 72.0 °F - 63.0 °F 73% 30.12 in 10.0 mi ENE 16.1 mph 20.7 mph 0.00 in   Clear
11:54 PM 72.0 °F - 63.0 °F 73% 30.11 in 10.0 mi NE 16.1 mph 24.2 mph 0.00 in Rain Light Rain